Terminal Aerodrome Forecast
Issued by NWS

Home | Current Version | Previous Version | Text Only | Print | Product List | Glossary On
Versions: 1 2 3 4 5 6 7 8 9 10 11 12 13 14 15 16 17 18 19
008
FTUS43 KDLH 282041 AAA
TAFBRD
TAF AMD
KBRD 282041Z 2821/2918 15009KT P6SM BKN025
      TEMPO 2821/2824 SCT025
     FM290000 17008KT P6SM VCTS BKN040CB
     FM290600 18010KT P6SM VCTS OVC035CB
     FM291200 19010KT P6SM VCTS OVC040CB=

USA.gov is the U.S. government's official web portal to all federal, state and local government web resources and services.